This is the latest recevied weather packets stored in our database for station/object SR5NLK-1. If no packets are shown the sender has not sent any weather packets the latest 10 day(s).
| Time | Temp. | Humidity | Pressure | Rain* | Wind** | Luminosity | Snow |
|---|---|---|---|---|---|---|---|
| 1777791304 | 32.22° C | 25% | 1049.1 hPa | 0 mm | - | - | - |
| 1777791243 | 31.67° C | 25% | 1087.8 hPa | 0 mm | - | - | - |
| 1777791004 | 31.11° C | 25% | 1064.3 hPa | 0 mm | - | - | - |
| 1777790704 | 30.56° C | 25% | 1084.7 hPa | 0 mm | - | - | - |
| 1777790404 | 30.56° C | 25% | 1051.2 hPa | 0 mm | - | - | - |
| 1777790104 | 30° C | 26% | 1053.5 hPa | 0 mm | - | - | - |
| 1777789804 | 30° C | 25% | 1048.6 hPa | 0 mm | - | - | - |
| 1777789504 | 30.56° C | 25% | 1081.5 hPa | 0 mm | - | - | - |
| 1777789264 | 30.56° C | 25% | 1027.1 hPa | 0 mm | - | - | - |
| 1777789204 | 30.56° C | 25% | 1035 hPa | 0 mm | - | - | - |
| 1777788904 | 31.11° C | 25% | 1058.6 hPa | 0 mm | - | - | - |
| 1777788604 | 30.56° C | 26% | 1030.2 hPa | 0 mm | - | - | - |
| 1777788304 | 30.56° C | 26% | 1050.4 hPa | 0 mm | - | - | - |
| 1777788004 | 30.56° C | 26% | 1090.9 hPa | 0 mm | - | - | - |
| 1777787704 | 30.56° C | 26% | 1106.8 hPa | 0 mm | - | - | - |
| 1777787404 | 30.56° C | 27% | 1005.4 hPa | 0 mm | - | - | - |
| 1777787284 | 30.56° C | 27% | 1083.8 hPa | 0 mm | - | - | - |
| 1777787104 | 30.56° C | 27% | 1049.1 hPa | 0 mm | - | - | - |
| 1777786804 | 30° C | 27% | 1084.7 hPa | 0 mm | - | - | - |
| 1777786504 | 30° C | 28% | 1080.7 hPa | 0 mm | - | - | - |
| 1777786204 | 30° C | 28% | 1076.2 hPa | 0 mm | - | - | - |
| 1777785904 | 30° C | 28% | 1089.9 hPa | 0 mm | - | - | - |
| 1777785772 | 30° C | 28% | 1033.4 hPa | 0 mm | - | - | - |
| 1777785772 | 29.44° C | 29% | 1075.2 hPa | 0 mm | - | - | - |
| 1777785604 | 30° C | 28% | 1033.4 hPa | 0 mm | - | - | - |
* Rain latest hour (hover to see other rain measurements)
** Current wind speed in m/s (hover to see current wind gust speed)